TimeMDT,TemperatureF,Dew PointF,Humidity,Sea Level PressureIn,VisibilityMPH,Wind Direction,Wind SpeedMPH,Gust SpeedMPH,PrecipitationIn,Events,Conditions,WindDirDegrees,DateUTC
12:53 AM,51.1,37.9,61,30.11,10.0,North,5.8,-,N/A,,Overcast,360,2013-03-31 06:53:00
1:53 AM,45.0,37.0,74,30.10,10.0,North,6.9,-,0.00,,Clear,10,2013-03-31 07:53:00
2:53 AM,43.0,35.1,74,30.09,10.0,North,5.8,-,N/A,,Clear,10,2013-03-31 08:53:00
3:53 AM,39.9,34.0,79,30.08,10.0,NNW,5.8,-,N/A,,Clear,340,2013-03-31 09:53:00
4:53 AM,37.9,33.1,83,30.09,10.0,WNW,5.8,-,N/A,,Clear,300,2013-03-31 10:53:00
5:53 AM,39.9,33.1,77,30.08,10.0,Calm,Calm,-,N/A,,Clear,0,2013-03-31 11:53:00
6:53 AM,37.0,32.0,82,30.09,10.0,SW,3.5,-,N/A,,Clear,220,2013-03-31 12:53:00
7:53 AM,43.0,35.1,74,30.07,10.0,West,8.1,-,N/A,,Clear,270,2013-03-31 13:53:00
8:53 AM,46.9,36.0,66,30.07,10.0,SW,6.9,-,N/A,,Clear,220,2013-03-31 14:53:00
9:53 AM,52.0,36.0,54,30.04,10.0,SW,4.6,-,N/A,,Clear,220,2013-03-31 15:53:00
10:53 AM,57.0,30.0,36,30.01,10.0,South,4.6,-,N/A,,Clear,190,2013-03-31 16:53:00
11:53 AM,60.1,30.0,32,29.98,10.0,South,11.5,-,N/A,,Clear,170,2013-03-31 17:53:00
12:53 PM,64.0,28.9,27,29.94,10.0,South,10.4,16.1,N/A,,Clear,190,2013-03-31 18:53:00
1:53 PM,68.0,27.0,21,29.90,10.0,South,9.2,18.4,N/A,,Clear,190,2013-03-31 19:53:00
2:53 PM,69.1,25.0,19,29.86,10.0,Variable,6.9,19.6,N/A,,Clear,0,2013-03-31 20:53:00
3:53 PM,72.0,19.9,14,29.83,10.0,Variable,6.9,-,N/A,,Clear,0,2013-03-31 21:53:00
4:53 PM,73.0,17.1,12,29.80,10.0,ESE,3.5,-,N/A,,Clear,120,2013-03-31 22:53:00
5:53 PM,73.0,12.9,10,29.78,10.0,SE,4.6,-,N/A,,Clear,140,2013-03-31 23:53:00
6:53 PM,68.0,10.9,11,29.80,10.0,East,8.1,-,N/A,,Clear,100,2013-04-01 00:53:00
7:53 PM,59.0,18.0,20,29.82,10.0,ENE,9.2,-,N/A,,Clear,70,2013-04-01 01:53:00
8:53 PM,54.0,18.0,24,29.84,10.0,ENE,10.4,-,N/A,,Clear,70,2013-04-01 02:53:00
9:53 PM,51.1,21.0,31,29.84,10.0,ENE,4.6,-,N/A,,Clear,70,2013-04-01 03:53:00
10:53 PM,52.0,26.1,37,29.84,10.0,East,3.5,-,N/A,,Clear,90,2013-04-01 04:53:00
11:53 PM,45.0,24.1,44,29.85,10.0,North,9.2,-,N/A,,Clear,360,2013-04-01 05:53:00